EW0791 Weather Reports


Display with metric or nautical units.
time (UTC)temp
F
wind
direction
speed
MPH
gust
MPH
rain 1hr
in
rain 24hr
in
rain mn
in
humidity
%
barometer
mb
20220928151824 66 205 2.0 8.0 0.00 0.00 0.00 65 1017.5
20220928150349 65 219 4.0 7.0 0.00 0.00 0.00 67 1017.5
20220928144918 64 218 2.0 7.0 0.00 0.00 0.00 67 1017.5
20220928143322 64 317 2.0 4.0 0.00 0.00 0.00 69 1017.4
20220928141834 64 279 1.0 5.0 0.00 0.00 0.00 71 1017.4
20220928140347 63 256 3.0 8.0 0.00 0.00 0.00 72 1017.3
20220928134835 62 264 3.0 9.0 0.00 0.00 0.00 74 1017.3
20220928133318 60 271 1.0 3.0 0.00 0.00 0.00 79 1017.2
20220928131858 59 247 1.0 4.0 0.00 0.00 0.00 80 1016.9
20220928130325 57 226 2.0 4.0 0.00 0.00 0.00 84 1016.8
20220928124821 55 169 2.0 4.0 0.00 0.00 0.00 86 1016.6
20220928123317 54 242 2.0 4.0 0.00 0.00 0.00 89 1016.6
20220928121821 53 178 1.0 5.0 0.00 0.00 0.00 90 1016.4
20220928120342 52 201 3.0 4.0 0.00 0.00 0.00 93 1016.3
20220928114920 51 227 1.0 3.0 0.00 0.00 0.00 94 1016.3
20220928113325 50 233 0.0 2.0 0.00 0.00 0.00 94 1016.2
20220928111856 50 198 1.0 3.0 0.00 0.00 0.00 95 1016.1
20220928110323 49 152 0.0 0.0 0.00 0.00 0.00 95 1016.0
20220928104854 49 152 0.0 1.0 0.00 0.01 0.00 95 1015.8
20220928103328 49 216 1.0 2.0 0.00 0.01 0.00 95 1015.6
20220928101842 49 220 0.0 1.0 0.00 0.01 0.00 95 1015.6
20220928100336 49 146 1.0 3.0 0.00 0.01 0.00 95 1015.5
20220928094816 49 176 0.0 0.0 0.00 0.01 0.00 93 1015.5
20220928093330 49 176 0.0 0.0 0.00 0.01 0.00 93 1015.3
20220928091904 50 176 0.0 2.0 0.00 0.01 0.00 93 1015.2
20220928091821 50 176 0.0 2.0 0.00 0.01 0.00 93 1015.2
20220928090353 50 168 0.0 0.0 0.00 0.01 0.00 92 1015.1
20220928084817 51 168 0.0 0.0 0.00 0.01 0.00 91 1014.9
20220928083329 52 168 0.0 1.0 0.00 0.01 0.00 90 1015.1
20220928081836 52 201 0.0 2.0 0.00 0.01 0.00 89 1014.9
20220928080327 53 226 1.0 3.0 0.00 0.01 0.00 88 1014.8
20220928074837 53 240 3.0 6.0 0.00 0.01 0.00 88 1014.5
20220928073323 53 198 3.0 5.0 0.00 0.01 0.00 89 1014.8
20220928071832 53 206 3.0 5.0 0.00 0.01 0.00 89 1014.6
20220928070344 53 192 1.0 3.0 0.00 0.01 0.00 88 1014.6
20220928064834 53 197 0.0 1.0 0.00 0.01 0.00 89 1014.4
20220928063407 53 200 0.0 2.0 0.00 0.01 0.00 88 1014.4
20220928061838 53 210 1.0 3.0 0.00 0.01 0.00 89 1014.4
20220928060330 53 213 1.0 2.0 0.00 0.01 0.00 89 1014.5
20220928054814 52 234 0.0 1.0 0.00 0.01 0.00 91 1014.4
20220928053326 52 195 0.0 0.0 0.00 0.01 0.00 90 1014.2
20220928051858 52 195 0.0 1.0 0.00 0.01 0.00 89 1014.2
20220928050351 52 200 0.0 1.0 0.00 0.01 0.00 89 1014.2
20220928044816 52 218 0.0 0.0 0.00 0.01 0.00 88 1014.0
20220928043328 52 213 0.0 1.0 0.00 0.01 0.00 89 1014.0
20220928041826 53 218 0.0 1.0 0.00 0.01 0.00 87 1014.0
20220928040336 53 181 0.0 2.0 0.00 0.01 0.00 87 1014.0
20220928034812 54 221 0.0 1.0 0.00 0.01 0.01 86 1013.7
20220928033323 54 158 0.0 1.0 0.00 0.01 0.01 85 1013.5
20220928031835 54 233 1.0 2.0 0.00 0.01 0.01 84 1013.4
20220928030323 55 236 0.0 2.0 0.00 0.01 0.01 82 1013.4
20220928024817 56 244 2.0 5.0 0.00 0.01 0.01 82 1013.2
20220928023357 55 188 1.0 2.0 0.00 0.01 0.01 84 1013.2
20220928021822 55 210 0.0 2.0 0.00 0.01 0.01 83 1013.1
20220928020322 56 217 1.0 2.0 0.00 0.01 0.01 83 1012.9
20220928014834 56 208 1.0 2.0 0.00 0.01 0.01 81 1012.9
20220928013347 57 200 1.0 2.0 0.00 0.01 0.01 80 1012.9
20220928011831 57 250 0.0 2.0 0.00 0.01 0.01 79 1012.7
20220928010343 57 226 0.0 1.0 0.00 0.01 0.01 78 1012.5
20220928004836 58 217 0.0 1.0 0.00 0.01 0.01 77 1012.5
20220928003328 58 239 0.0 2.0 0.00 0.01 0.01 76 1012.4
20220928001823 59 205 0.0 1.0 0.00 0.01 0.01 75 1012.3
20220928000312 60 226 0.0 2.0 0.00 0.01 0.01 71 1012.3
20220927234823 61 204 0.0 2.0 0.00 0.06 0.01 68 1012.1
20220927233315 62 222 1.0 4.0 0.00 0.06 0.01 66 1012.0
20220927231826 62 221 1.0 2.0 0.00 0.06 0.01 67 1011.7
20220927213336 70 205 5.0 10.0 0.00 0.23 0.01 52 1010.3
20220927211824 70 203 3.0 11.0 0.00 0.23 0.01 51 1010.1
20220927210355 71 266 4.0 11.0 0.00 0.23 0.01 49 1010.0
20220927204843 71 207 3.0 11.0 0.00 0.23 0.01 49 1009.9
20220927203355 72 173 6.0 12.0 0.00 0.23 0.01 47 1009.8
20220927201904 72 242 4.0 15.0 0.00 0.23 0.01 46 1009.8
20220927200330 72 191 3.0 12.0 0.00 0.23 0.01 46 1009.6
20220927194816 71 251 6.0 16.0 0.00 0.23 0.01 46 1009.4
20220927193326 71 198 5.0 15.0 0.00 0.23 0.01 47 1009.5
20220927191834 71 51 7.0 14.0 0.00 0.23 0.01 48 1009.6
20220927190319 70 214 3.0 14.0 0.00 0.23 0.01 51 1009.7
20220927184828 71 258 6.0 12.0 0.00 0.23 0.01 49 1009.6
20220927183400 71 264 4.0 11.0 0.00 0.23 0.01 48 1009.6
20220927181826 71 269 3.0 10.0 0.00 0.23 0.01 52 1009.5
20220927180358 70 214 4.0 10.0 0.00 0.23 0.01 52 1009.7
20220927174822 72 284 6.0 10.0 0.00 0.23 0.01 50 1009.8
20220927173419 71 267 7.0 20.0 0.00 0.23 0.01 51 1009.8
20220927171819 70 236 7.0 20.0 0.00 0.23 0.01 51 1010.3
20220927170329 71 229 7.0 12.0 0.00 0.23 0.01 50 1010.3
20220927164814 70 221 7.0 16.0 0.00 0.23 0.01 51 1010.5
20220927163321 70 268 3.0 7.0 0.00 0.23 0.01 56 1010.4
20220927161833 69 229 4.0 9.0 0.00 0.23 0.01 57 1010.4
20220927160319 69 248 5.0 13.0 0.00 0.23 0.01 59 1010.4
20220927154829 68 229 2.0 9.0 0.00 0.23 0.01 61 1010.4
20220927153323 68 237 5.0 9.0 0.00 0.23 0.01 61 1010.4